owner,sensor,date,latitude,longitude,vertical_datum,sea_water_temperature,qcFlag 
Scripps,ioos:station:wmo:42099:1,2017-09-15T18:30:00Z,27.3400,-84.2750,0.0,28.3,2 
Scripps,ioos:station:wmo:42099:1,2017-09-15T19:30:00Z,27.3400,-84.2750,0.0,28.4,2 
Scripps,ioos:station:wmo:42099:1,2017-09-15T20:30:00Z,27.3400,-84.2750,0.0,28.5,2 
Scripps,ioos:station:wmo:42099:1,2017-09-15T21:30:00Z,27.3400,-84.2750,0.0,28.45,2 
Scripps,ioos:station:wmo:42099:1,2017-09-15T22:30:00Z,27.3400,-84.2750,0.0,28.4,2 
Scripps,ioos:station:wmo:42099:1,2017-09-15T23:30:00Z,27.3400,-84.2750,0.0,28.4,2 
Scripps,ioos:station:wmo:42099:1,2017-09-16T00:30:00Z,27.3400,-84.2750,0.0,28.45,2 
Scripps,ioos:station:wmo:42099:1,2017-09-16T01:00:00Z,27.3400,-84.2750,0.0,28.35,2 
Scripps,ioos:station:wmo:42099:1,2017-09-16T02:30:00Z,27.3400,-84.2750,0.0,28.35,2 
Scripps,ioos:station:wmo:42099:1,2017-09-16T03:30:00Z,27.3400,-84.2750,0.0,28.1,2 
Scripps,ioos:station:wmo:42099:1,2017-09-16T04:30:00Z,27.3400,-84.2750,0.0,28.0,2 
Scripps,ioos:station:wmo:42099:1,2017-09-16T05:00:00Z,27.3400,-84.2750,0.0,27.95,2 
Scripps,ioos:station:wmo:42099:1,2017-09-16T06:30:00Z,27.3400,-84.2750,0.0,27.8,2 
Scripps,ioos:station:wmo:42099:1,2017-09-16T07:30:00Z,27.3400,-84.2750,0.0,27.85,2 
Scripps,ioos:station:wmo:42099:1,2017-09-16T08:30:00Z,27.3400,-84.2750,0.0,27.9,2 
Scripps,ioos:station:wmo:42099:1,2017-09-16T09:30:00Z,27.3400,-84.2750,0.0,28.05,2 
Scripps,ioos:station:wmo:42099:1,2017-09-16T10:30:00Z,27.3400,-84.2750,0.0,28.05,2 
Scripps,ioos:station:wmo:42099:1,2017-09-16T11:30:00Z,27.3400,-84.2750,0.0,28.15,2 
Scripps,ioos:station:wmo:42099:1,2017-09-16T12:30:00Z,27.3400,-84.2750,0.0,28.2,2 
Scripps,ioos:station:wmo:42099:1,2017-09-16T13:30:00Z,27.3400,-84.2750,0.0,28.25,2 
Scripps,ioos:station:wmo:42099:1,2017-09-16T14:30:00Z,27.3400,-84.2750,0.0,28.25,2 
Scripps,ioos:station:wmo:42099:1,2017-09-16T15:30:00Z,27.3400,-84.2750,0.0,28.3,2 
Scripps,ioos:station:wmo:42099:1,2017-09-16T16:30:00Z,27.3400,-84.2750,0.0,28.35,2 
Scripps,ioos:station:wmo:42099:1,2017-09-16T18:30:00Z,27.3400,-84.2750,0.0,28.45,2 
Scripps,ioos:station:wmo:42099:1,2017-09-16T19:30:00Z,27.3400,-84.2750,0.0,28.45,2 
Scripps,ioos:station:wmo:42099:1,2017-09-16T20:30:00Z,27.3400,-84.2750,0.0,28.4,2 
Scripps,ioos:station:wmo:42099:1,2017-09-16T21:30:00Z,27.3400,-84.2750,0.0,28.4,2 
Scripps,ioos:station:wmo:42099:1,2017-09-16T22:30:00Z,27.3400,-84.2750,0.0,28.4,2 
Scripps,ioos:station:wmo:42099:1,2017-09-16T23:00:00Z,27.3400,-84.2750,0.0,28.4,2 
Scripps,ioos:station:wmo:42099:1,2017-09-17T00:30:00Z,27.3400,-84.2750,0.0,28.35,2 
Scripps,ioos:station:wmo:42099:1,2017-09-17T01:30:00Z,27.3400,-84.2750,0.0,28.35,2 
Scripps,ioos:station:wmo:42099:1,2017-09-17T02:30:00Z,27.3400,-84.2750,0.0,28.35,2 
Scripps,ioos:station:wmo:42099:1,2017-09-17T03:30:00Z,27.3400,-84.2750,0.0,28.2,2 
Scripps,ioos:station:wmo:42099:1,2017-09-17T04:30:00Z,27.3400,-84.2750,0.0,28.05,2 
Scripps,ioos:station:wmo:42099:1,2017-09-17T05:30:00Z,27.3400,-84.2750,0.0,27.95,2 
Scripps,ioos:station:wmo:42099:1,2017-09-17T06:00:00Z,27.3400,-84.2750,0.0,27.85,2 
Scripps,ioos:station:wmo:42099:1,2017-09-17T07:30:00Z,27.3400,-84.2750,0.0,27.6,2 
Scripps,ioos:station:wmo:42099:1,2017-09-17T08:30:00Z,27.3400,-84.2750,0.0,27.7,2 
Scripps,ioos:station:wmo:42099:1,2017-09-17T09:30:00Z,27.3400,-84.2750,0.0,27.8,2 
Scripps,ioos:station:wmo:42099:1,2017-09-17T10:30:00Z,27.3400,-84.2750,0.0,27.85,2 
Scripps,ioos:station:wmo:42099:1,2017-09-17T11:00:00Z,27.3400,-84.2750,0.0,27.85,2 
Scripps,ioos:station:wmo:42099:1,2017-09-17T12:30:00Z,27.3400,-84.2750,0.0,27.85,2 
Scripps,ioos:station:wmo:42099:1,2017-09-17T13:30:00Z,27.3400,-84.2750,0.0,27.95,2 
Scripps,ioos:station:wmo:42099:1,2017-09-17T14:30:00Z,27.3400,-84.2750,0.0,27.95,2 
Scripps,ioos:station:wmo:42099:1,2017-09-17T15:30:00Z,27.3400,-84.2750,0.0,28.0,2 
Scripps,ioos:station:wmo:42099:1,2017-09-17T16:30:00Z,27.3400,-84.2750,0.0,28.1,2 
Scripps,ioos:station:wmo:42099:1,2017-09-17T17:00:00Z,27.3400,-84.2750,0.0,28.15,2 
Scripps,ioos:station:wmo:42099:1,2017-09-17T18:30:00Z,27.3400,-84.2750,0.0,28.35,2 
Scripps,ioos:station:wmo:42099:1,2017-09-17T19:30:00Z,27.3400,-84.2750,0.0,28.35,2 
Scripps,ioos:station:wmo:42099:1,2017-09-17T20:30:00Z,27.3400,-84.2750,0.0,28.3,2 
Scripps,ioos:station:wmo:42099:1,2017-09-17T21:00:00Z,27.3400,-84.2750,0.0,28.3,2 
Scripps,ioos:station:wmo:42099:1,2017-09-17T22:30:00Z,27.3400,-84.2750,0.0,28.2,2 
Scripps,ioos:station:wmo:42099:1,2017-09-17T23:30:00Z,27.3400,-84.2750,0.0,28.15,2 
Scripps,ioos:station:wmo:42099:1,2017-09-18T00:30:00Z,27.3400,-84.2750,0.0,28.1,2 
Scripps,ioos:station:wmo:42099:1,2017-09-18T01:30:00Z,27.3400,-84.2750,0.0,28.1,2 
Scripps,ioos:station:wmo:42099:1,2017-09-18T02:30:00Z,27.3400,-84.2750,0.0,28.1,2 
Scripps,ioos:station:wmo:42099:1,2017-09-18T03:30:00Z,27.3400,-84.2750,0.0,28.15,2 
Scripps,ioos:station:wmo:42099:1,2017-09-18T04:30:00Z,27.3400,-84.2750,0.0,28.2,2 
Scripps,ioos:station:wmo:42099:1,2017-09-18T05:30:00Z,27.3400,-84.2750,0.0,28.2,2 
Scripps,ioos:station:wmo:42099:1,2017-09-18T06:30:00Z,27.3400,-84.2750,0.0,28.1,2 
Scripps,ioos:station:wmo:42099:1,2017-09-18T07:30:00Z,27.3400,-84.2750,0.0,27.95,2 
Scripps,ioos:station:wmo:42099:1,2017-09-18T08:30:00Z,27.3400,-84.2750,0.0,27.9,2 
Scripps,ioos:station:wmo:42099:1,2017-09-18T09:30:00Z,27.3400,-84.2750,0.0,27.9,2 
Scripps,ioos:station:wmo:42099:1,2017-09-18T10:30:00Z,27.3400,-84.2750,0.0,27.85,2 
Scripps,ioos:station:wmo:42099:1,2017-09-18T11:00:00Z,27.3400,-84.2750,0.0,27.85,2 
Scripps,ioos:station:wmo:42099:1,2017-09-18T12:30:00Z,27.3400,-84.2750,0.0,27.85,2 
Scripps,ioos:station:wmo:42099:1,2017-09-18T13:00:00Z,27.3400,-84.2750,0.0,27.85,2 
Scripps,ioos:station:wmo:42099:1,2017-09-18T14:30:00Z,27.3400,-84.2750,0.0,27.9,2 
Scripps,ioos:station:wmo:42099:1,2017-09-18T15:30:00Z,27.3400,-84.2750,0.0,28.0,2 
Scripps,ioos:station:wmo:42099:1,2017-09-18T16:30:00Z,27.3400,-84.2750,0.0,28.1,2 
Scripps,ioos:station:wmo:42099:1,2017-09-18T17:30:00Z,27.3400,-84.2750,0.0,28.25,2 
Scripps,ioos:station:wmo:42099:1,2017-09-19T08:30:00Z,27.3400,-84.2750,0.0,27.8,2 
Scripps,ioos:station:wmo:42099:1,2017-09-19T09:00:00Z,27.3400,-84.2750,0.0,27.8,2 
Scripps,ioos:station:wmo:42099:1,2017-09-19T10:30:00Z,27.3400,-84.2750,0.0,27.8,2 
Scripps,ioos:station:wmo:42099:1,2017-09-19T11:30:00Z,27.3400,-84.2750,0.0,27.8,2 
Scripps,ioos:station:wmo:42099:1,2017-09-19T12:30:00Z,27.3400,-84.2750,0.0,27.8,2 
Scripps,ioos:station:wmo:42099:1,2017-09-19T13:30:00Z,27.3400,-84.2750,0.0,27.9,2 
Scripps,ioos:station:wmo:42099:1,2017-09-19T14:30:00Z,27.3400,-84.2750,0.0,27.95,2 
Scripps,ioos:station:wmo:42099:1,2017-09-19T15:30:00Z,27.3400,-84.2750,0.0,28.05,2 
Scripps,ioos:station:wmo:42099:1,2017-09-19T16:30:00Z,27.3400,-84.2750,0.0,28.2,2 
Scripps,ioos:station:wmo:42099:1,2017-09-19T17:30:00Z,27.3400,-84.2750,0.0,28.25,2 
Scripps,ioos:station:wmo:42099:1,2017-09-19T18:30:00Z,27.3400,-84.2750,0.0,28.3,2 
Scripps,ioos:station:wmo:42099:1,2017-09-19T19:00:00Z,27.3400,-84.2750,0.0,28.3,2 
Scripps,ioos:station:wmo:42099:1,2017-09-19T20:30:00Z,27.3400,-84.2750,0.0,28.35,2 
Scripps,ioos:station:wmo:42099:1,2017-09-19T21:30:00Z,27.3400,-84.2750,0.0,28.35,2 
Scripps,ioos:station:wmo:42099:1,2017-09-19T22:30:00Z,27.3400,-84.2750,0.0,28.35,2 
Scripps,ioos:station:wmo:42099:1,2017-09-19T23:30:00Z,27.3400,-84.2750,0.0,28.3,2 
Scripps,ioos:station:wmo:42099:1,2017-09-20T00:30:00Z,27.3400,-84.2750,0.0,28.35,2 
Scripps,ioos:station:wmo:42099:1,2017-09-20T01:00:00Z,27.3400,-84.2750,0.0,28.3,2 
Scripps,ioos:station:wmo:42099:1,2017-09-20T02:00:00Z,27.3400,-84.2750,0.0,28.35,2 
Scripps,ioos:station:wmo:42099:1,2017-09-20T04:30:00Z,27.3400,-84.2750,0.0,28.35,2 
Scripps,ioos:station:wmo:42099:1,2017-09-20T05:00:00Z,27.3400,-84.2750,0.0,28.35,2 
Scripps,ioos:station:wmo:42099:1,2017-09-20T06:30:00Z,27.3400,-84.2750,0.0,28.3,2 
Scripps,ioos:station:wmo:42099:1,2017-09-20T07:30:00Z,27.3400,-84.2750,0.0,28.3,2 
Scripps,ioos:station:wmo:42099:1,2017-09-20T08:30:00Z,27.3400,-84.2750,0.0,28.3,2 
Scripps,ioos:station:wmo:42099:1,2017-09-20T09:30:00Z,27.3400,-84.2750,0.0,28.3,2 
Scripps,ioos:station:wmo:42099:1,2017-09-20T10:30:00Z,27.3400,-84.2750,0.0,28.3,2 
Scripps,ioos:station:wmo:42099:1,2017-09-20T11:30:00Z,27.3400,-84.2750,0.0,28.3,2 
Scripps,ioos:station:wmo:42099:1,2017-09-20T12:30:00Z,27.3400,-84.2750,0.0,28.3,2 
Scripps,ioos:station:wmo:42099:1,2017-09-20T13:30:00Z,27.3400,-84.2750,0.0,28.3,2 
Scripps,ioos:station:wmo:42099:1,2017-09-20T14:30:00Z,27.3400,-84.2750,0.0,28.35,2 
Scripps,ioos:station:wmo:42099:1,2017-09-20T15:30:00Z,27.3400,-84.2750,0.0,28.4,2 
Scripps,ioos:station:wmo:42099:1,2017-09-20T16:30:00Z,27.3400,-84.2750,0.0,28.45,2 
Scripps,ioos:station:wmo:42099:1,2017-09-20T17:30:00Z,27.3400,-84.2750,0.0,28.5,2 
Scripps,ioos:station:wmo:42099:1,2017-09-20T18:30:00Z,27.3400,-84.2750,0.0,28.55,2 
Scripps,ioos:station:wmo:42099:1,2017-09-20T19:30:00Z,27.3400,-84.2750,0.0,28.55,2 
Scripps,ioos:station:wmo:42099:1,2017-09-20T20:30:00Z,27.3400,-84.2750,0.0,28.55,2 
Scripps,ioos:station:wmo:42099:1,2017-09-20T21:30:00Z,27.3400,-84.2750,0.0,28.55,2 
Scripps,ioos:station:wmo:42099:1,2017-09-20T22:30:00Z,27.3400,-84.2750,0.0,28.55,2 
Scripps,ioos:station:wmo:42099:1,2017-09-20T23:30:00Z,27.3400,-84.2750,0.0,28.5,2 
Scripps,ioos:station:wmo:42099:1,2017-09-21T00:30:00Z,27.3400,-84.2750,0.0,28.45,2 
Scripps,ioos:station:wmo:42099:1,2017-09-21T01:30:00Z,27.3400,-84.2750,0.0,28.45,2 
Scripps,ioos:station:wmo:42099:1,2017-09-21T02:00:00Z,27.3400,-84.2750,0.0,28.45,2 
Scripps,ioos:station:wmo:42099:1,2017-09-21T03:30:00Z,27.3400,-84.2750,0.0,28.45,2 
Scripps,ioos:station:wmo:42099:1,2017-09-21T04:30:00Z,27.3400,-84.2750,0.0,28.4,2 
Scripps,ioos:station:wmo:42099:1,2017-09-21T05:30:00Z,27.3400,-84.2750,0.0,28.4,2 
Scripps,ioos:station:wmo:42099:1,2017-09-21T06:30:00Z,27.3400,-84.2750,0.0,28.4,2 
Scripps,ioos:station:wmo:42099:1,2017-09-21T07:00:00Z,27.3400,-84.2750,0.0,28.35,2 
Scripps,ioos:station:wmo:42099:1,2017-09-21T08:30:00Z,27.3400,-84.2750,0.0,28.35,2 
Scripps,ioos:station:wmo:42099:1,2017-09-21T09:30:00Z,27.3400,-84.2750,0.0,28.35,2 
Scripps,ioos:station:wmo:42099:1,2017-09-21T10:30:00Z,27.3400,-84.2750,0.0,28.35,2 
Scripps,ioos:station:wmo:42099:1,2017-09-21T11:30:00Z,27.3400,-84.2750,0.0,28.3,2 
Scripps,ioos:station:wmo:42099:1,2017-09-21T12:30:00Z,27.3400,-84.2750,0.0,28.3,2 
Scripps,ioos:station:wmo:42099:1,2017-09-21T13:30:00Z,27.3400,-84.2750,0.0,28.3,2 
Scripps,ioos:station:wmo:42099:1,2017-09-21T14:30:00Z,27.3400,-84.2750,0.0,28.35,2 
Scripps,ioos:station:wmo:42099:1,2017-09-21T15:30:00Z,27.3400,-84.2750,0.0,28.4,2 
Scripps,ioos:station:wmo:42099:1,2017-09-21T16:30:00Z,27.3400,-84.2750,0.0,28.5,2 
Scripps,ioos:station:wmo:42099:1,2017-09-21T17:30:00Z,27.3400,-84.2750,0.0,28.6,2 
Scripps,ioos:station:wmo:42099:1,2017-09-21T18:30:00Z,27.3400,-84.2750,0.0,28.7,2 
Scripps,ioos:station:wmo:42099:1,2017-09-21T19:30:00Z,27.3400,-84.2750,0.0,28.75,2 
Scripps,ioos:station:wmo:42099:1,2017-09-21T20:30:00Z,27.3400,-84.2750,0.0,28.75,2 
Scripps,ioos:station:wmo:42099:1,2017-09-21T21:30:00Z,27.3400,-84.2750,0.0,28.75,2 
Scripps,ioos:station:wmo:42099:1,2017-09-21T22:30:00Z,27.3400,-84.2750,0.0,28.7,2 
Scripps,ioos:station:wmo:42099:1,2017-09-21T23:30:00Z,27.3400,-84.2750,0.0,28.65,2 
Scripps,ioos:station:wmo:42099:1,2017-09-22T00:30:00Z,27.3400,-84.2750,0.0,28.6,2 
Scripps,ioos:station:wmo:42099:1,2017-09-22T01:30:00Z,27.3400,-84.2750,0.0,28.55,2 
Scripps,ioos:station:wmo:42099:1,2017-09-22T02:30:00Z,27.3400,-84.2750,0.0,28.5,2 
Scripps,ioos:station:wmo:42099:1,2017-09-22T03:30:00Z,27.3400,-84.2750,0.0,28.45,2 
Scripps,ioos:station:wmo:42099:1,2017-09-22T04:30:00Z,27.3400,-84.2750,0.0,28.35,2 
Scripps,ioos:station:wmo:42099:1,2017-09-22T05:30:00Z,27.3400,-84.2750,0.0,28.25,2 
Scripps,ioos:station:wmo:42099:1,2017-09-22T06:30:00Z,27.3400,-84.2750,0.0,28.2,2 
Scripps,ioos:station:wmo:42099:1,2017-09-22T07:30:00Z,27.3400,-84.2750,0.0,28.2,2 
Scripps,ioos:station:wmo:42099:1,2017-09-22T08:30:00Z,27.3400,-84.2750,0.0,28.2,2 
Scripps,ioos:station:wmo:42099:1,2017-09-22T09:30:00Z,27.3400,-84.2750,0.0,28.2,2 
Scripps,ioos:station:wmo:42099:1,2017-09-22T10:30:00Z,27.3400,-84.2750,0.0,28.1,2 
Scripps,ioos:station:wmo:42099:1,2017-09-22T11:30:00Z,27.3400,-84.2750,0.0,28.05,2 
Scripps,ioos:station:wmo:42099:1,2017-09-22T12:30:00Z,27.3400,-84.2750,0.0,28.05,2 
Scripps,ioos:station:wmo:42099:1,2017-09-22T13:30:00Z,27.3400,-84.2750,0.0,28.15,2 
Scripps,ioos:station:wmo:42099:1,2017-09-22T14:30:00Z,27.3400,-84.2750,0.0,28.25,2 
Scripps,ioos:station:wmo:42099:1,2017-09-22T15:30:00Z,27.3400,-84.2750,0.0,28.35,2 
Scripps,ioos:station:wmo:42099:1,2017-09-22T16:30:00Z,27.3400,-84.2750,0.0,28.4,2 
Scripps,ioos:station:wmo:42099:1,2017-09-22T17:30:00Z,27.3400,-84.2750,0.0,28.4,2 
Scripps,ioos:station:wmo:42099:1,2017-09-22T18:30:00Z,27.3400,-84.2750,0.0,28.45,2 
Scripps,ioos:station:wmo:42099:1,2017-09-22T19:00:00Z,27.3400,-84.2750,0.0,28.55,2 
Scripps,ioos:station:wmo:42099:1,2017-09-22T20:30:00Z,27.3400,-84.2750,0.0,28.45,2 
Scripps,ioos:station:wmo:42099:1,2017-09-22T21:30:00Z,27.3400,-84.2750,0.0,28.45,2 
Scripps,ioos:station:wmo:42099:1,2017-09-22T22:30:00Z,27.3400,-84.2750,0.0,28.45,2 
Scripps,ioos:station:wmo:42099:1,2017-09-23T01:30:00Z,27.3400,-84.2750,0.0,28.15,2 
Scripps,ioos:station:wmo:42099:1,2017-09-23T02:30:00Z,27.3400,-84.2750,0.0,28.1,2 
Scripps,ioos:station:wmo:42099:1,2017-09-23T03:00:00Z,27.3400,-84.2750,0.0,28.05,2 
Scripps,ioos:station:wmo:42099:1,2017-09-23T04:30:00Z,27.3400,-84.2750,0.0,28.1,2 
Scripps,ioos:station:wmo:42099:1,2017-09-23T05:30:00Z,27.3400,-84.2750,0.0,28.1,2 
Scripps,ioos:station:wmo:42099:1,2017-09-23T07:30:00Z,27.3400,-84.2750,0.0,28.2,2 
Scripps,ioos:station:wmo:42099:1,2017-09-23T08:00:00Z,27.3400,-84.2750,0.0,28.2,2 
Scripps,ioos:station:wmo:42099:1,2017-09-23T09:30:00Z,27.3400,-84.2750,0.0,28.2,2 
Scripps,ioos:station:wmo:42099:1,2017-09-23T10:30:00Z,27.3400,-84.2750,0.0,28.2,2 
Scripps,ioos:station:wmo:42099:1,2017-09-23T11:30:00Z,27.3400,-84.2750,0.0,28.25,2 
Scripps,ioos:station:wmo:42099:1,2017-09-23T12:30:00Z,27.3400,-84.2750,0.0,28.2,2 
Scripps,ioos:station:wmo:42099:1,2017-09-23T13:30:00Z,27.3400,-84.2750,0.0,28.2,2 
Scripps,ioos:station:wmo:42099:1,2017-09-23T14:30:00Z,27.3400,-84.2750,0.0,28.15,2 
Scripps,ioos:station:wmo:42099:1,2017-09-23T15:30:00Z,27.3400,-84.2750,0.0,28.05,2 
Scripps,ioos:station:wmo:42099:1,2017-09-23T16:30:00Z,27.3400,-84.2750,0.0,28.05,2 
Scripps,ioos:station:wmo:42099:1,2017-09-23T17:30:00Z,27.3400,-84.2750,0.0,28.05,2 
Scripps,ioos:station:wmo:42099:1,2017-09-23T18:30:00Z,27.3400,-84.2750,0.0,28.05,2 
Scripps,ioos:station:wmo:42099:1,2017-09-23T19:30:00Z,27.3400,-84.2750,0.0,28.1,2 
Scripps,ioos:station:wmo:42099:1,2017-09-23T20:30:00Z,27.3400,-84.2750,0.0,28.15,2 
Scripps,ioos:station:wmo:42099:1,2017-09-23T21:30:00Z,27.3400,-84.2750,0.0,28.25,2 
Scripps,ioos:station:wmo:42099:1,2017-09-23T22:30:00Z,27.3400,-84.2750,0.0,28.3,2 
Scripps,ioos:station:wmo:42099:1,2017-09-23T23:30:00Z,27.3400,-84.2750,0.0,28.3,2 
Scripps,ioos:station:wmo:42099:1,2017-09-24T00:30:00Z,27.3400,-84.2750,0.0,28.3,2 
Scripps,ioos:station:wmo:42099:1,2017-09-24T01:30:00Z,27.3400,-84.2750,0.0,28.3,2 
Scripps,ioos:station:wmo:42099:1,2017-09-24T02:30:00Z,27.3400,-84.2750,0.0,28.25,2 
Scripps,ioos:station:wmo:42099:1,2017-09-24T03:30:00Z,27.3400,-84.2750,0.0,28.25,2 
Scripps,ioos:station:wmo:42099:1,2017-09-24T04:30:00Z,27.3400,-84.2750,0.0,28.2,2 
Scripps,ioos:station:wmo:42099:1,2017-09-24T05:30:00Z,27.3400,-84.2750,0.0,28.2,2 
Scripps,ioos:station:wmo:42099:1,2017-09-24T06:30:00Z,27.3400,-84.2750,0.0,28.15,2 
Scripps,ioos:station:wmo:42099:1,2017-09-24T07:00:00Z,27.3400,-84.2750,0.0,28.15,2 
Scripps,ioos:station:wmo:42099:1,2017-09-24T08:30:00Z,27.3400,-84.2750,0.0,28.15,2 
Scripps,ioos:station:wmo:42099:1,2017-09-24T09:30:00Z,27.3400,-84.2750,0.0,28.1,2 
Scripps,ioos:station:wmo:42099:1,2017-09-24T10:30:00Z,27.3400,-84.2750,0.0,28.1,2 
Scripps,ioos:station:wmo:42099:1,2017-09-24T11:30:00Z,27.3400,-84.2750,0.0,28.1,2 
Scripps,ioos:station:wmo:42099:1,2017-09-24T12:30:00Z,27.3400,-84.2750,0.0,28.15,2 
Scripps,ioos:station:wmo:42099:1,2017-09-24T13:30:00Z,27.3400,-84.2750,0.0,28.15,2 
Scripps,ioos:station:wmo:42099:1,2017-09-24T14:30:00Z,27.3400,-84.2750,0.0,28.15,2 
Scripps,ioos:station:wmo:42099:1,2017-09-24T15:30:00Z,27.3400,-84.2750,0.0,28.2,2 
Scripps,ioos:station:wmo:42099:1,2017-09-24T16:30:00Z,27.3400,-84.2750,0.0,28.25,2 
Scripps,ioos:station:wmo:42099:1,2017-09-24T17:30:00Z,27.3400,-84.2750,0.0,28.3,2 
Scripps,ioos:station:wmo:42099:1,2017-09-24T18:30:00Z,27.3400,-84.2750,0.0,28.3,2 
Scripps,ioos:station:wmo:42099:1,2017-09-24T19:30:00Z,27.3400,-84.2750,0.0,28.3,2 
Scripps,ioos:station:wmo:42099:1,2017-09-24T20:30:00Z,27.3400,-84.2750,0.0,28.5,2 
Scripps,ioos:station:wmo:42099:1,2017-09-24T21:30:00Z,27.3400,-84.2750,0.0,28.35,2 
Scripps,ioos:station:wmo:42099:1,2017-09-24T22:30:00Z,27.3400,-84.2750,0.0,28.35,2 
Scripps,ioos:station:wmo:42099:1,2017-09-24T23:30:00Z,27.3400,-84.2750,0.0,28.35,2 
Scripps,ioos:station:wmo:42099:1,2017-09-25T00:30:00Z,27.3400,-84.2750,0.0,28.3,2 
Scripps,ioos:station:wmo:42099:1,2017-09-25T01:00:00Z,27.3400,-84.2750,0.0,28.3,2 
Scripps,ioos:station:wmo:42099:1,2017-09-25T02:30:00Z,27.3400,-84.2750,0.0,28.35,2 
Scripps,ioos:station:wmo:42099:1,2017-09-25T03:30:00Z,27.3400,-84.2750,0.0,28.35,2 
Scripps,ioos:station:wmo:42099:1,2017-09-25T04:30:00Z,27.3400,-84.2750,0.0,28.35,2 
Scripps,ioos:station:wmo:42099:1,2017-09-25T05:30:00Z,27.3400,-84.2750,0.0,28.3,2 
Scripps,ioos:station:wmo:42099:1,2017-09-25T06:30:00Z,27.3400,-84.2750,0.0,28.3,2 
Scripps,ioos:station:wmo:42099:1,2017-09-25T07:30:00Z,27.3400,-84.2750,0.0,28.2,2 
Scripps,ioos:station:wmo:42099:1,2017-09-25T08:30:00Z,27.3400,-84.2750,0.0,28.15,2 
Scripps,ioos:station:wmo:42099:1,2017-09-25T09:30:00Z,27.3400,-84.2750,0.0,28.1,2 
Scripps,ioos:station:wmo:42099:1,2017-09-25T10:30:00Z,27.3400,-84.2750,0.0,28.05,2 
Scripps,ioos:station:wmo:42099:1,2017-09-25T11:30:00Z,27.3400,-84.2750,0.0,28.0,2 
Scripps,ioos:station:wmo:42099:1,2017-09-25T12:30:00Z,27.3400,-84.2750,0.0,28.0,2 
Scripps,ioos:station:wmo:42099:1,2017-09-25T13:30:00Z,27.3400,-84.2750,0.0,28.05,2 
Scripps,ioos:station:wmo:42099:1,2017-09-25T14:00:00Z,27.3400,-84.2750,0.0,28.1,2 
Scripps,ioos:station:wmo:42099:1,2017-09-25T15:30:00Z,27.3400,-84.2750,0.0,28.5,2 
Scripps,ioos:station:wmo:42099:1,2017-09-25T16:30:00Z,27.3400,-84.2750,0.0,28.85,2 
Scripps,ioos:station:wmo:42099:1,2017-09-25T17:00:00Z,27.3400,-84.2750,0.0,28.75,2 
Scripps,ioos:station:wmo:42099:1,2017-09-25T18:30:00Z,27.3400,-84.2750,0.0,29.25,2 
Scripps,ioos:station:wmo:42099:1,2017-09-25T19:30:00Z,27.3400,-84.2750,0.0,29.45,2 
Scripps,ioos:station:wmo:42099:1,2017-09-25T20:30:00Z,27.3400,-84.2750,0.0,29.6,2 
Scripps,ioos:station:wmo:42099:1,2017-09-25T21:30:00Z,27.3400,-84.2750,0.0,29.85,2 
Scripps,ioos:station:wmo:42099:1,2017-09-25T22:30:00Z,27.3400,-84.2750,0.0,29.75,2 
Scripps,ioos:station:wmo:42099:1,2017-09-25T23:30:00Z,27.3400,-84.2750,0.0,29.5,2 
Scripps,ioos:station:wmo:42099:1,2017-09-26T00:30:00Z,27.3400,-84.2750,0.0,29.2,2 
Scripps,ioos:station:wmo:42099:1,2017-09-26T01:30:00Z,27.3400,-84.2750,0.0,29.05,2 
Scripps,ioos:station:wmo:42099:1,2017-09-26T02:30:00Z,27.3400,-84.2750,0.0,28.75,2 
Scripps,ioos:station:wmo:42099:1,2017-09-26T03:30:00Z,27.3400,-84.2750,0.0,28.6,2 
Scripps,ioos:station:wmo:42099:1,2017-09-26T04:30:00Z,27.3400,-84.2750,0.0,28.65,2 
Scripps,ioos:station:wmo:42099:1,2017-09-26T05:30:00Z,27.3400,-84.2750,0.0,28.7,2 
Scripps,ioos:station:wmo:42099:1,2017-09-26T06:30:00Z,27.3400,-84.2750,0.0,28.5,2 
Scripps,ioos:station:wmo:42099:1,2017-09-26T07:00:00Z,27.3400,-84.2750,0.0,28.5,2 
Scripps,ioos:station:wmo:42099:1,2017-09-26T08:30:00Z,27.3400,-84.2750,0.0,28.5,2 
Scripps,ioos:station:wmo:42099:1,2017-09-26T09:30:00Z,27.3400,-84.2750,0.0,28.35,2 
Scripps,ioos:station:wmo:42099:1,2017-09-26T10:30:00Z,27.3400,-84.2750,0.0,28.3,2 
Scripps,ioos:station:wmo:42099:1,2017-09-26T11:30:00Z,27.3400,-84.2750,0.0,28.35,2 
Scripps,ioos:station:wmo:42099:1,2017-09-26T12:30:00Z,27.3400,-84.2750,0.0,28.35,2 
Scripps,ioos:station:wmo:42099:1,2017-09-26T13:30:00Z,27.3400,-84.2750,0.0,28.3,2 
Scripps,ioos:station:wmo:42099:1,2017-09-26T14:30:00Z,27.3400,-84.2750,0.0,28.3,2 
Scripps,ioos:station:wmo:42099:1,2017-09-26T15:30:00Z,27.3400,-84.2750,0.0,28.5,2 
Scripps,ioos:station:wmo:42099:1,2017-09-26T16:30:00Z,27.3400,-84.2750,0.0,28.9,2 
Scripps,ioos:station:wmo:42099:1,2017-09-26T17:30:00Z,27.3400,-84.2750,0.0,28.85,2 
Scripps,ioos:station:wmo:42099:1,2017-09-26T18:30:00Z,27.3400,-84.2750,0.0,29.25,2 
Scripps,ioos:station:wmo:42099:1,2017-09-26T19:30:00Z,27.3400,-84.2750,0.0,29.9,2 
Scripps,ioos:station:wmo:42099:1,2017-09-26T20:30:00Z,27.3400,-84.2750,0.0,30.35,2 
Scripps,ioos:station:wmo:42099:1,2017-09-26T21:30:00Z,27.3400,-84.2750,0.0,30.3,2 
Scripps,ioos:station:wmo:42099:1,2017-09-26T22:30:00Z,27.3400,-84.2750,0.0,29.8,2 
Scripps,ioos:station:wmo:42099:1,2017-09-26T23:30:00Z,27.3400,-84.2750,0.0,29.55,2 
Scripps,ioos:station:wmo:42099:1,2017-09-27T00:30:00Z,27.3400,-84.2750,0.0,29.3,2 
Scripps,ioos:station:wmo:42099:1,2017-09-27T01:30:00Z,27.3400,-84.2750,0.0,29.0,2 
Scripps,ioos:station:wmo:42099:1,2017-09-27T02:30:00Z,27.3400,-84.2750,0.0,29.2,2 
Scripps,ioos:station:wmo:42099:1,2017-09-27T03:30:00Z,27.3400,-84.2750,0.0,29.05,2 
Scripps,ioos:station:wmo:42099:1,2017-09-27T04:30:00Z,27.3400,-84.2750,0.0,28.75,2 
Scripps,ioos:station:wmo:42099:1,2017-09-27T05:30:00Z,27.3400,-84.2750,0.0,28.75,2 
Scripps,ioos:station:wmo:42099:1,2017-09-27T06:30:00Z,27.3400,-84.2750,0.0,28.7,2 
Scripps,ioos:station:wmo:42099:1,2017-09-27T07:30:00Z,27.3400,-84.2750,0.0,28.6,2 
Scripps,ioos:station:wmo:42099:1,2017-09-27T08:30:00Z,27.3400,-84.2750,0.0,28.5,2 
Scripps,ioos:station:wmo:42099:1,2017-09-27T09:30:00Z,27.3400,-84.2750,0.0,28.6,2 
Scripps,ioos:station:wmo:42099:1,2017-09-27T10:30:00Z,27.3400,-84.2750,0.0,28.4,2 
Scripps,ioos:station:wmo:42099:1,2017-09-27T11:30:00Z,27.3400,-84.2750,0.0,28.25,2 
Scripps,ioos:station:wmo:42099:1,2017-09-27T12:30:00Z,27.3400,-84.2750,0.0,28.35,2 
Scripps,ioos:station:wmo:42099:1,2017-09-27T13:30:00Z,27.3400,-84.2750,0.0,28.4,2 
Scripps,ioos:station:wmo:42099:1,2017-09-27T14:30:00Z,27.3400,-84.2750,0.0,28.45,2 
Scripps,ioos:station:wmo:42099:1,2017-09-27T15:30:00Z,27.3400,-84.2750,0.0,28.55,2 
Scripps,ioos:station:wmo:42099:1,2017-09-27T16:30:00Z,27.3400,-84.2750,0.0,29.0,2 
Scripps,ioos:station:wmo:42099:1,2017-09-27T17:30:00Z,27.3400,-84.2750,0.0,29.5,2 
Scripps,ioos:station:wmo:42099:1,2017-09-27T18:30:00Z,27.3400,-84.2750,0.0,30.05,2 
Scripps,ioos:station:wmo:42099:1,2017-09-27T19:30:00Z,27.3400,-84.2750,0.0,30.4,2 
Scripps,ioos:station:wmo:42099:1,2017-09-27T20:30:00Z,27.3400,-84.2750,0.0,30.3,2 
Scripps,ioos:station:wmo:42099:1,2017-09-27T21:30:00Z,27.3400,-84.2750,0.0,29.85,2 
Scripps,ioos:station:wmo:42099:1,2017-09-27T22:30:00Z,27.3400,-84.2750,0.0,29.3,2 
Scripps,ioos:station:wmo:42099:1,2017-09-27T23:00:00Z,27.3400,-84.2750,0.0,29.0,2 
Scripps,ioos:station:wmo:42099:1,2017-09-28T00:30:00Z,27.3400,-84.2750,0.0,28.65,2 
Scripps,ioos:station:wmo:42099:1,2017-09-28T01:30:00Z,27.3400,-84.2750,0.0,28.6,2 
Scripps,ioos:station:wmo:42099:1,2017-09-28T02:30:00Z,27.3400,-84.2750,0.0,28.5,2 
Scripps,ioos:station:wmo:42099:1,2017-09-28T03:30:00Z,27.3400,-84.2750,0.0,28.5,2 
Scripps,ioos:station:wmo:42099:1,2017-09-28T04:30:00Z,27.3400,-84.2750,0.0,28.55,2 
Scripps,ioos:station:wmo:42099:1,2017-09-28T05:30:00Z,27.3400,-84.2750,0.0,28.5,2 
Scripps,ioos:station:wmo:42099:1,2017-09-28T06:30:00Z,27.3400,-84.2750,0.0,28.45,2 
Scripps,ioos:station:wmo:42099:1,2017-09-28T07:30:00Z,27.3400,-84.2750,0.0,28.4,2 
Scripps,ioos:station:wmo:42099:1,2017-09-28T08:30:00Z,27.3400,-84.2750,0.0,28.4,2 
Scripps,ioos:station:wmo:42099:1,2017-09-28T09:30:00Z,27.3400,-84.2750,0.0,28.4,2 
Scripps,ioos:station:wmo:42099:1,2017-09-28T10:30:00Z,27.3400,-84.2750,0.0,28.4,2 